[[{"header":{"parameterUnit":"m.s-1","parameterCategory":1,"la1":30.2992,"la2":30.254,"lo1":-89.0895,"lo2":-89.0443,"dy":0.0025,"dx":0.0025,"nx":19,"ny":19,"refTime":"2026-03-25T21:00:00:Z","depth":0,"parameterNumber":2,"parameterNumberName":"U-component_of_WINDS"},"data":[0,0,0,-3.2948,-3.2951,-3.3083,-3.3083,-3.3263,-3.3265,0,0,0,0,0,0,0,0,0,0,0,-3.2914,-3.2915,-3.2948,-3.2951,-3.3083,-3.3083,-3.3263,-3.3265,0,0,0,0,0,0,0,0,0,0,0,-3.2913,-3.2915,-3.2917,-3.2952,-3.3083,-3.3083,-3.3262,-3.3159,0,0,0,0,0,0,0,0,0,0,-3.303,-3.3002,-3.2915,-3.2917,-3.2953,-3.3083,-3.3083,-3.3154,-3.3166,-3.3208,0,-3.3244,0,-3.3258,-3.3277,-3.3278,0,0,0,-3.2948,-3.2993,-3.3024,-3.2917,-3.2954,-3.3082,-3.3023,-3.3161,-3.3174,-3.3223,-3.3247,-3.3253,-3.3261,-3.3279,-3.328,-3.3529,-3.353,0,0,-3.2941,-3.294,-3.3015,-3.3033,-3.3011,-3.3018,-3.3027,-3.3168,-3.3195,-3.3248,-3.3257,-3.3263,-3.328,-3.3281,-3.3527,-3.3529,0,0,0,-3.2922,-3.2936,-3.2963,-3.3025,-3.3048,-3.3022,-3.3032,-3.3189,-3.3198,-3.3259,-3.3266,-3.3281,-3.3283,-3.3526,-3.3528,-3.3591,0,0,0,-3.2918,-3.2924,-3.296,-3.2961,-3.3046,-3.312,-3.3049,-3.3188,-3.3204,-3.3265,-3.3281,-3.3285,-3.3524,-3.3527,-3.3586,-3.3621,0,0,0,-3.2904,-3.2923,-3.2943,-3.2961,-3.3017,-3.3117,-3.3134,-3.3191,-3.3208,-3.3278,-3.3286,-3.3523,-3.3526,-3.3582,-3.3614,-3.3686,0,0,0,-3.2889,-3.2998,-3.2944,-3.3069,-3.3016,-3.3155,-3.3133,-3.3237,-3.3305,-3.3282,-3.3525,-3.3528,-3.3581,-3.3609,-3.3682,-3.3746,-3.3773,0,0,-3.3026,-3.3014,-3.3088,-3.3044,-3.3192,-3.3135,-3.3294,-3.3357,-3.3366,-3.3474,-3.3481,-3.3588,-3.3613,-3.3685,-3.3927,-3.3948,0,0,0,-3.3131,-3.3184,-3.3223,-3.3288,-3.3339,-3.3386,-3.3425,-3.3449,-3.3541,-3.3421,-3.3634,-3.365,-3.3692,-3.3723,-3.3741,-3.3778,-3.3542,-3.3542,-3.3542,-3.3323,-3.3327,-3.345,-3.3471,-3.3534,-3.3575,-3.3627,-3.3667,-3.3652,-3.3704,-3.3735,-3.3881,-3.3917,-3.3931,-3.3969,-3.3771,-3.3771,-3.3771,-3.3771,-3.3524,-3.3599,-3.3579,-3.3691,-3.3696,-3.3791,-3.3836,-3.3823,-3.3913,-3.3857,-3.3894,-3.3831,-3.3954,-3.3988,-3.3776,-3.3775,-3.3775,-3.3774,-3.3774,-3.3648,-3.3685,-3.3713,-3.3808,-3.3882,-3.3901,-3.3988,-3.3991,-3.3994,-3.4031,-3.4065,-3.4064,-3.4063,-3.4048,-3.4048,-3.4049,-3.4049,-3.4049,-3.405,-3.3766,-3.3796,-3.3868,-3.3933,-3.3976,-3.4033,-3.4078,-3.4121,-3.417,-3.4165,-3.4165,-3.4147,-3.3965,-3.3919,-3.4058,-3.4056,-3.4055,-3.4054,-3.4054,-3.3966,-3.3921,-3.4033,-3.4076,-3.4155,-3.4229,-3.4232,-3.432,-3.4356,-3.44,-3.4376,-3.4241,-3.4229,-3.4215,-3.4177,-3.4374,-3.4374,-3.4374,-3.4374,-3.407,-3.4065,-3.4181,-3.425,-3.4318,-3.4333,-3.4463,-3.45,-3.4532,-3.4556,-3.4529,-3.4479,-3.4464,-3.4461,-3.4441,-3.4405,-3.4656,-3.4656,-3.4657,-3.4193,-3.4195,-3.4303,-3.4332,-3.4395,-3.4449,-3.4572,-3.4654,-3.4682,-3.4668,-3.4575,-3.4563,-3.4482,-3.4456,-3.4437,-3.4406,-3.4341,0,0]},{"header":{"parameterUnit":"m.s-1","parameterCategory":1,"la1":30.2992,"la2":30.254,"lo1":-89.0895,"lo2":-89.0443,"dy":0.0025,"dx":0.0025,"nx":19,"ny":19,"refTime":"2026-03-25T21:00:00:Z","depth":0,"parameterNumber":3,"parameterNumberName":"V-component_of_WINDS"},"data":[0,0,0,2.8465,2.8465,2.8489,2.8489,2.8514,2.8514,0,0,0,0,0,0,0,0,0,0,0,2.8455,2.8455,2.8465,2.8465,2.8489,2.8489,2.8514,2.8514,0,0,0,0,0,0,0,0,0,0,0,2.8455,2.8455,2.8455,2.8465,2.8489,2.8489,2.8514,2.8498,0,0,0,0,0,0,0,0,0,0,2.8475,2.8464,2.8455,2.8455,2.8466,2.8489,2.8489,2.8497,2.8499,2.8501,0,2.8504,0,2.8509,2.8516,2.8516,0,0,0,2.8467,2.8463,2.8472,2.8455,2.8466,2.8489,2.8479,2.8498,2.85,2.8504,2.8504,2.8505,2.851,2.8516,2.8516,2.8529,2.8529,0,0,2.8465,2.8458,2.8471,2.8473,2.847,2.8478,2.8479,2.8499,2.8499,2.8504,2.8506,2.851,2.8516,2.8516,2.8529,2.8529,0,0,0,2.8461,2.8457,2.8465,2.8472,2.8477,2.8479,2.848,2.8498,2.8502,2.8506,2.8511,2.8516,2.8516,2.8529,2.8529,2.8523,0,0,0,2.846,2.8454,2.8465,2.846,2.8476,2.8488,2.8478,2.85,2.8503,2.851,2.8516,2.8517,2.8529,2.8529,2.8523,2.852,0,0,0,2.8454,2.8453,2.8456,2.846,2.847,2.8488,2.8492,2.8501,2.8505,2.8516,2.8517,2.8529,2.8529,2.8523,2.8521,2.8523,0,0,0,2.8446,2.8448,2.8456,2.846,2.847,2.8484,2.8492,2.8503,2.8511,2.8516,2.8529,2.8529,2.8523,2.8521,2.8523,2.8523,2.8522,0,0,2.8444,2.8448,2.8451,2.8459,2.847,2.8481,2.8491,2.8504,2.8511,2.8523,2.8523,2.8523,2.8521,2.8523,2.8521,2.8521,0,0,0,2.8448,2.845,2.8455,2.8463,2.8475,2.8486,2.8499,2.8505,2.8515,2.8516,2.8524,2.8523,2.8525,2.8525,2.8525,2.8527,2.8529,2.8529,2.8529,2.8433,2.8445,2.8452,2.8466,2.8474,2.8489,2.8497,2.8507,2.8513,2.8515,2.8519,2.8517,2.8517,2.8517,2.8519,2.852,2.852,2.852,2.852,2.8433,2.8438,2.845,2.8461,2.8473,2.8481,2.8497,2.8502,2.8511,2.8515,2.8516,2.8519,2.8516,2.8518,2.8519,2.8519,2.8519,2.8519,2.8519,2.8424,2.8429,2.8437,2.8453,2.8463,2.8477,2.8487,2.8497,2.8505,2.8507,2.8513,2.8513,2.8514,2.8509,2.8509,2.8509,2.8509,2.8509,2.8509,2.8413,2.8422,2.843,2.8445,2.8453,2.8465,2.8482,2.8489,2.85,2.8507,2.8507,2.8514,2.8514,2.8514,2.8509,2.8509,2.8509,2.8509,2.8509,2.8407,2.8411,2.8423,2.8431,2.8451,2.8461,2.8474,2.849,2.8497,2.8502,2.851,2.8508,2.8511,2.8512,2.8512,2.8507,2.8507,2.8507,2.8507,2.8401,2.8404,2.842,2.8433,2.8447,2.8461,2.8474,2.8488,2.8502,2.8508,2.851,2.8511,2.8511,2.8514,2.8515,2.8515,2.8511,2.8511,2.8511,2.8398,2.8404,2.8414,2.843,2.8447,2.8461,2.8474,2.8488,2.8504,2.8511,2.8512,2.8512,2.8514,2.8514,2.8519,2.852,2.852,0,0]}]]